Deer Park, WA

9:21 PM PDT on June 25, 2017 (GMT -0700)
Deer Park

Weather History for KDEW - March, 2014

Change the Weather History Date:

Monday, March 3, 2014

  Actual Average Record
Temperature  
Mean Temperature 27 °F 34 °F  
Max Temperature 34 °F 44 °F 54 °F (2005)
Min Temperature 20 °F 23 °F 11 °F (2015)
Degree Days  
Heating Degree Days 38 31  
Month to date heating degree days 137 95  
Since 1 July heating degree days 5531 5460  
Cooling Degree Days 0 0  
Month to date cooling degree days 0 0  
Year to date cooling degree days 0 0  
Moisture  
Dew Point 26 °F    
Average Humidity 91    
Maximum Humidity 100    
Minimum Humidity 82    
Precipitation  
Precipitation 0.25 in 0.05 in 0.25 in (2014)
Month to date precipitation 0.58 0.15  
Year to date precipitation 4.30 4.38  
Sea Level Pressure  
Sea Level Pressure 29.84 in    
Wind  
Wind Speed 4 mph (NNE)    
Max Wind Speed 10 mph    
Max Gust Speed 12 mph    
Visibility 6 miles    
Events Fog , Snow    
T = Trace of Precipitation, MM = Missing Value Source: NWS Daily Summary

Daily Weather History Graph

Daily Weather History Graph

Search for Another Location

Airport or City:

Trip Planner

Search our weather history database for the weather conditions in past years. The results will help you decide how hot, cold, wet, or windy it might be!

Date:

Astronomy

Mar. 03, 2014 Rise Set
Actual Time 6:26 AM PST 5:37 PM PST
Civil Twilight 5:55 AM PST 6:08 PM PST
Nautical Twilight 5:19 AM PST 6:44 PM PST
Astronomical Twilight 4:43 AM PST 7:20 PM PST
Moon 7:23 AM PST (3/3) 9:02 PM PST (3/3)
Length of Visible Light 12h 12m
Length of Day
11h 10m
Waxing Crescent, 8% of the Moon is Illuminated
Mar 3
Waxing Crescent
Mar 8
First Quarter
Mar 16
Full
Mar 23
Last Quarter
Mar 30
New

Hourly Weather History & Observations

Time (PST) Temp. Windchill Dew Point Humidity Pressure Visibility Wind Dir Wind Speed Gust Speed Precip Events Conditions
12:41 AM 19.9 °F 13.4 °F 17.1 °F 89% 29.79 in 2.5 mi North 4.6 mph - 0.00 in Snow Light Snow
12:53 AM 19.9 °F 13.4 °F 17.1 °F 89% 29.88 in 1.2 mi NW 4.6 mph - 0.01 in Snow Light Snow
1:07 AM 19.9 °F 14.9 °F 17.1 °F 89% 29.79 in 2.0 mi NNW 3.5 mph - 0.00 in Snow Light Snow
1:22 AM 19.9 °F - 17.1 °F 89% 29.80 in 4.0 mi Calm Calm - 0.00 in   Overcast
1:53 AM 19.9 °F - 18.0 °F 92% 29.90 in 4.0 mi Calm Calm - 0.00 in   Overcast
2:20 AM 19.9 °F - 19.0 °F 96% 29.81 in 3.0 mi Calm Calm - N/A   Overcast
2:53 AM 21.0 °F - 19.0 °F 92% 29.91 in 4.0 mi Calm Calm - N/A   Overcast
3:53 AM 21.0 °F - 19.0 °F 92% 29.93 in 3.0 mi Calm Calm - N/A   Overcast
4:53 AM 21.0 °F 16.2 °F 19.0 °F 92% 29.94 in 5.0 mi NNE 3.5 mph - N/A   Overcast
5:53 AM 21.0 °F - 19.0 °F 92% 29.94 in 7.0 mi Calm Calm - N/A   Overcast
6:53 AM 21.9 °F - 19.9 °F 92% 29.94 in 9.0 mi Calm Calm - N/A   Overcast
7:53 AM 23.0 °F 13.9 °F 21.0 °F 92% 29.94 in 9.0 mi North 8.1 mph - N/A   Overcast
8:53 AM 25.0 °F 18.1 °F 23.0 °F 92% 29.92 in 8.0 mi NNE 5.8 mph - N/A   Overcast
9:53 AM 27.0 °F 20.5 °F 24.1 °F 89% 29.90 in 10.0 mi North 5.8 mph - N/A   Overcast
10:17 AM 27.0 °F 23.0 °F 24.1 °F 89% 29.81 in 2.0 mi North 3.5 mph - 0.00 in Snow Light Snow
10:24 AM 28.0 °F 24.2 °F 25.0 °F 88% 29.81 in 1.0 mi North 3.5 mph - 0.00 in Snow Light Snow
10:31 AM 28.0 °F 21.7 °F 24.1 °F 85% 29.81 in 0.8 mi North 5.8 mph - 0.01 in Snow Light Snow
10:45 AM 27.0 °F 18.7 °F 24.1 °F 89% 29.80 in 0.5 mi North 8.1 mph - 0.02 in Fog , Snow Snow
10:53 AM 27.0 °F 21.6 °F 24.1 °F 89% 29.89 in 0.2 mi North 4.6 mph - 0.04 in Fog , Snow Heavy Snow
11:53 AM 28.0 °F 21.7 °F 25.0 °F 88% 29.86 in 0.5 mi NNE 5.8 mph - 0.11 in Fog , Snow Snow
12:53 PM 30.0 °F 23.2 °F 27.0 °F 88% 29.83 in 0.8 mi NNE 6.9 mph - 0.08 in Snow Light Snow
1:02 PM 30.0 °F 22.4 °F 27.0 °F 88% 29.76 in 1.8 mi NE 8.1 mph - 0.01 in Snow Light Snow
1:08 PM 30.0 °F 21.7 °F 26.1 °F 85% 29.75 in 3.0 mi NNE 9.2 mph - 0.01 in Snow Light Snow
1:50 PM 32.0 °F 27.5 °F 28.4 °F 87% 29.74 in 9.0 mi NE 4.6 mph - 0.01 in   Overcast
1:53 PM 32.0 °F 27.5 °F 28.0 °F 85% 29.81 in 7.0 mi NNE 4.6 mph - 0.01 in   Overcast
2:53 PM 33.1 °F 26.9 °F 28.9 °F 85% 29.81 in 10.0 mi North 6.9 mph - N/A   Overcast
3:53 PM 34.0 °F 31.0 °F 30.0 °F 85% 29.81 in 10.0 mi ENE 3.5 mph - N/A   Overcast
4:08 PM 34.0 °F 31.0 °F 30.0 °F 85% 29.74 in 10.0 mi NE 3.5 mph - N/A   Overcast
4:53 PM 33.1 °F 30.0 °F 30.0 °F 89% 29.83 in 10.0 mi ENE 3.5 mph - N/A   Overcast
5:01 PM 33.1 °F 28.7 °F 30.0 °F 89% 29.76 in 10.0 mi NE 4.6 mph - N/A   Overcast
5:10 PM 33.1 °F 28.7 °F 30.0 °F 89% 29.76 in 10.0 mi NE 4.6 mph - N/A   Overcast
5:53 PM 32.0 °F 28.7 °F 30.0 °F 92% 29.84 in 10.0 mi ENE 3.5 mph - N/A   Overcast
6:27 PM 33.1 °F - 30.0 °F 89% 29.78 in 10.0 mi Calm Calm - N/A   Overcast
6:53 PM 33.1 °F - 30.9 °F 92% 29.86 in 10.0 mi Calm Calm - N/A   Overcast
7:53 PM 33.1 °F 26.9 °F 30.9 °F 92% 29.87 in 9.0 mi SSE 6.9 mph - N/A   Overcast
8:23 PM 34.0 °F 26.6 °F 32.0 °F 92% 29.82 in 7.0 mi South 9.2 mph - N/A   Overcast
8:53 PM 33.1 °F 30.0 °F 32.0 °F 96% 29.88 in 4.0 mi South 3.5 mph - N/A   Overcast
9:28 PM 34.0 °F 28.8 °F 33.1 °F 96% 29.83 in 5.0 mi South 5.8 mph - N/A   Overcast
9:53 PM 34.0 °F 29.8 °F 33.1 °F 96% 29.90 in 3.0 mi South 4.6 mph - N/A   Overcast
10:53 PM 34.0 °F 26.6 °F 32.0 °F 92% 29.90 in 6.0 mi SSW 9.2 mph - N/A   Overcast
11:01 PM 34.0 °F 28.0 °F 32.0 °F 92% 29.84 in 7.0 mi SSW 6.9 mph - N/A   Overcast
11:30 PM 33.1 °F 30.0 °F 32.0 °F 96% 29.85 in 5.0 mi SSW 3.5 mph - N/A   Overcast
11:53 PM 34.0 °F - 32.0 °F 92% 29.92 in 3.0 mi Calm Calm - N/A   Overcast